Weather History for KMIW - October, 2012

Change the Weather History Date:

Saturday, October 6, 2012

  Actual Average Record
Temperature  
Mean Temperature 34 °F 54 °F  
Max Temperature 43 °F 66 °F 89 °F (1997)
Min Temperature 24 °F 42 °F 24 °F (2012)
Degree Days  
Heating Degree Days 31 12  
Month to date heating degree days 86 65  
Since 1 July heating degree days 264 225  
Cooling Degree Days 0 1  
Month to date cooling degree days 0 6  
Year to date cooling degree days 1074 724  
Moisture  
Dew Point 24 °F    
Average Humidity 66    
Maximum Humidity 81    
Minimum Humidity 51    
Precipitation  
Precipitation 0.00 in 0.06 in 0.02 in (2013)
Month to date precipitation T 0.40  
Sea Level Pressure  
Sea Level Pressure 30.27 in    
Wind  
Wind Speed 10 mph (NW)    
Max Wind Speed 15 mph    
Max Gust Speed 18 mph    
Visibility 10 miles    
Events      
T = Trace of Precipitation, MM = Missing Value Source: NWS Daily Summary

Daily Weather History Graph

Daily Weather History Graph

Search for Another Location

Airport or City:

Trip Planner

Search our weather history database for the weather conditions in past years. The results will help you decide how hot, cold, wet, or windy it might be!

Date:

Astronomy

Oct. 06, 2012 Rise Set
Actual Time 7:14 AM CDT 6:43 PM CDT
Civil Twilight 6:46 AM CDT 7:11 PM CDT
Nautical Twilight 6:14 AM CDT 7:44 PM CDT
Astronomical Twilight 5:41 AM CDT 8:16 PM CDT
Moon 10:55 PM CDT 1:14 PM CDT
Length of Visible Light 12h 25m
Length of Day
11h 29m
Waning Gibbous, 65% of the Moon is Illuminated
Oct 6
Waning Gibbous
Oct 8
Last Quarter
Oct 15
New
Oct 21
First Quarter
Oct 29
Full

Hourly Weather History & Observations

Time (CDT) Temp. Windchill Dew Point Humidity Pressure Visibility Wind Dir Wind Speed Gust Speed Precip Events Conditions
12:53 AM 28.0 °F 20.0 °F 19.0 °F 69% 30.22 in 10.0 mi WNW 8.1 mph - N/A   Clear
1:53 AM 27.0 °F 18.7 °F 19.0 °F 72% 30.24 in 10.0 mi WNW 8.1 mph - N/A   Clear
2:53 AM 27.0 °F 18.7 °F 19.9 °F 75% 30.24 in 10.0 mi WNW 8.1 mph - N/A   Clear
3:53 AM 28.9 °F 21.9 °F 21.0 °F 72% 30.23 in 10.0 mi West 6.9 mph - N/A   Clear
4:53 AM 27.0 °F 18.7 °F 21.0 °F 78% 30.25 in 10.0 mi West 8.1 mph - N/A   Clear
5:53 AM 24.1 °F 15.2 °F 19.9 °F 84% 30.25 in 10.0 mi WNW 8.1 mph - N/A   Clear
6:53 AM 27.0 °F 18.0 °F 21.0 °F 78% 30.25 in 10.0 mi WNW 9.2 mph - N/A   Clear
7:53 AM 27.0 °F 18.0 °F 21.9 °F 81% 30.27 in 10.0 mi WNW 9.2 mph - N/A   Clear
8:53 AM 34.0 °F 23.0 °F 26.1 °F 73% 30.30 in 10.0 mi NW 18.4 mph - N/A   Clear
9:12 AM 35.6 °F 25.9 °F 26.6 °F 70% 30.27 in 10.0 mi NW 16.1 mph - N/A   Mostly Cloudy
9:53 AM 37.0 °F 28.9 °F 27.0 °F 67% 30.30 in 10.0 mi NNW 12.7 mph - N/A   Overcast
10:53 AM 41.0 °F 32.5 °F 27.0 °F 57% 30.30 in 10.0 mi NW 17.3 mph 24.2 mph N/A   Overcast
11:13 AM 41.0 °F 32.2 °F 26.6 °F 57% 30.27 in 10.0 mi NW 18.4 mph 25.3 mph N/A   Overcast
11:53 AM 42.1 °F 33.9 °F 27.0 °F 55% 30.29 in 10.0 mi NW 17.3 mph - N/A   Overcast
12:53 PM 43.0 °F 35.1 °F 27.0 °F 53% 30.29 in 10.0 mi NNW 17.3 mph 24.2 mph N/A   Overcast
1:53 PM 42.1 °F 34.9 °F 27.0 °F 55% 30.28 in 10.0 mi NNW 13.8 mph 21.9 mph N/A   Overcast
2:53 PM 43.0 °F 36.8 °F 26.1 °F 51% 30.28 in 10.0 mi NW 11.5 mph - N/A   Overcast
3:53 PM 43.0 °F 36.8 °F 26.1 °F 51% 30.27 in 10.0 mi NW 11.5 mph - N/A   Overcast
4:53 PM 43.0 °F 36.0 °F 26.1 °F 51% 30.27 in 10.0 mi NW 13.8 mph - N/A   Overcast
5:53 PM 42.1 °F 36.1 °F 26.1 °F 53% 30.27 in 10.0 mi NW 10.4 mph - N/A   Overcast
6:53 PM 41.0 °F 35.2 °F 25.0 °F 53% 30.27 in 10.0 mi NW 9.2 mph - N/A   Overcast
7:53 PM 41.0 °F 35.8 °F 25.0 °F 53% 30.28 in 10.0 mi NW 8.1 mph - N/A   Overcast
8:53 PM 39.9 °F 35.1 °F 25.0 °F 55% 30.29 in 10.0 mi NW 6.9 mph - N/A   Overcast
9:53 PM 39.0 °F 34.8 °F 25.0 °F 57% 30.29 in 10.0 mi NW 5.8 mph - N/A   Overcast
10:53 PM 39.0 °F 35.7 °F 25.0 °F 57% 30.29 in 10.0 mi WNW 4.6 mph - N/A   Overcast